TimeCDT,TemperatureF,Dew PointF,Humidity,Sea Level PressureIn,VisibilityMPH,Wind Direction,Wind SpeedMPH,Gust SpeedMPH,PrecipitationIn,Events,Conditions,WindDirDegrees,DateUTC
12:53 AM,75.0,71.1,87,29.87,10.0,Calm,Calm,-,N/A,,Clear,0,2012-09-03 05:53:00
1:53 AM,73.0,71.1,93,29.88,8.0,Calm,Calm,-,N/A,,Clear,0,2012-09-03 06:53:00
2:53 AM,72.0,70.0,93,29.88,8.0,Calm,Calm,-,N/A,,Clear,0,2012-09-03 07:53:00
3:53 AM,71.1,69.1,93,29.88,4.0,Calm,Calm,-,N/A,,Clear,0,2012-09-03 08:53:00
4:19 AM,71.6,69.8,94,29.90,1.8,Calm,Calm,-,N/A,,Clear,0,2012-09-03 09:19:00
4:28 AM,71.6,69.8,94,29.89,3.0,Calm,Calm,-,N/A,,Clear,0,2012-09-03 09:28:00
4:44 AM,69.8,68.0,94,29.90,1.8,Calm,Calm,-,N/A,,Clear,0,2012-09-03 09:44:00
4:53 AM,70.0,68.0,93,29.88,1.0,Calm,Calm,-,N/A,,Clear,0,2012-09-03 09:53:00
5:01 AM,69.8,68.0,94,29.90,0.5,Calm,Calm,-,N/A,Fog,Fog,0,2012-09-03 10:01:00
5:04 AM,69.8,68.0,94,29.90,0.2,Calm,Calm,-,N/A,Fog,Fog,0,2012-09-03 10:04:00
5:20 AM,69.8,69.8,100,29.91,0.5,Calm,Calm,-,N/A,Fog,Fog,0,2012-09-03 10:20:00
5:33 AM,69.8,69.8,100,29.91,1.0,Calm,Calm,-,N/A,,Clear,0,2012-09-03 10:33:00
5:50 AM,68.0,68.0,100,29.91,0.5,Calm,Calm,-,N/A,Fog,Fog,0,2012-09-03 10:50:00
5:53 AM,68.0,68.0,100,29.89,0.5,Calm,Calm,-,N/A,Fog,Fog,0,2012-09-03 10:53:00
6:33 AM,68.0,66.2,94,29.92,0.2,Calm,Calm,-,N/A,Fog,Fog,0,2012-09-03 11:33:00
6:43 AM,68.0,66.2,94,29.92,0.8,Calm,Calm,-,N/A,,Clear,0,2012-09-03 11:43:00
6:53 AM,68.0,66.9,96,29.92,0.2,Calm,Calm,-,N/A,Fog,Fog,0,2012-09-03 11:53:00
7:22 AM,69.8,68.0,94,29.94,1.0,Calm,Calm,-,N/A,,Mist,0,2012-09-03 12:22:00
7:26 AM,69.8,68.0,94,29.94,2.0,Calm,Calm,-,N/A,,Clear,0,2012-09-03 12:26:00
7:33 AM,69.8,69.8,100,29.94,6.0,Calm,Calm,-,N/A,,Clear,0,2012-09-03 12:33:00
7:53 AM,71.1,70.0,96,29.93,7.0,Calm,Calm,-,N/A,,Clear,0,2012-09-03 12:53:00
8:53 AM,79.0,72.0,79,29.93,10.0,Calm,Calm,-,N/A,,Clear,0,2012-09-03 13:53:00
9:53 AM,84.9,71.1,63,29.94,10.0,WSW,11.5,-,N/A,,Clear,250,2012-09-03 14:53:00
10:53 AM,89.1,71.1,55,29.93,10.0,WSW,8.1,-,N/A,,Clear,240,2012-09-03 15:53:00
11:53 AM,93.9,71.1,47,29.92,10.0,WSW,10.4,-,N/A,,Clear,250,2012-09-03 16:53:00
12:53 PM,98.1,71.1,42,29.90,10.0,West,11.5,-,N/A,,Clear,260,2012-09-03 17:53:00
1:53 PM,100.9,69.1,36,29.88,10.0,West,8.1,-,N/A,,Clear,270,2012-09-03 18:53:00
2:53 PM,102.0,68.0,33,29.85,10.0,WSW,9.2,19.6,N/A,,Clear,240,2012-09-03 19:53:00
3:53 PM,102.0,66.0,31,29.83,10.0,WSW,8.1,-,N/A,,Clear,250,2012-09-03 20:53:00
4:53 PM,102.0,66.9,32,29.82,10.0,SW,5.8,-,N/A,,Clear,230,2012-09-03 21:53:00
5:53 PM,100.9,66.0,32,29.81,10.0,WSW,8.1,-,N/A,,Clear,240,2012-09-03 22:53:00
6:53 PM,98.1,66.9,36,29.81,10.0,SSW,6.9,-,N/A,,Clear,200,2012-09-03 23:53:00
7:53 PM,93.0,68.0,44,29.81,10.0,SSW,5.8,-,N/A,,Clear,200,2012-09-04 00:53:00
9:53 PM,79.0,72.0,79,29.84,10.0,Calm,Calm,-,N/A,,Clear,0,2012-09-04 02:53:00
10:53 PM,77.0,72.0,84,29.86,10.0,Calm,Calm,-,N/A,,Clear,0,2012-09-04 03:53:00
11:53 PM,75.9,72.0,87,29.86,10.0,Calm,Calm,-,N/A,,Clear,0,2012-09-04 04:53:00